UAL278 KEWR-SKBO

Flight info

Callsign UAL278
Flight time N/A
Altitude 36000
Route MYRCA Q133 LEEAH DCT SIE Q108 KALDA Q161 CHIEZ AR19 JRDAN AR3 CARPX Y307 CASPR AR3 NUCAR Y307 ENAMO UR625 NEFTU UP525 BAQ UL305 ATANA ATANA5S
Aircraft B772/H-SDE2E3FGHIJ5LORVWXY/LB1D1

Departure

Time N/A
Airport Newark Liberty International Airport (KEWR)

Arrival

Time 2026-05-04 22:38
Airport El Dorado International Airport (SKBO)
Time Latitude Longitude Altitude Speed Heading
2026-05-04 21:40 10.89017 -74.88489 37828 ft 475 kts 166°
2026-05-04 21:40 10.82622 -74.86830 37831 ft 474 kts 166°
2026-05-04 21:41 10.76100 -74.85998 37826 ft 471 kts 179°
2026-05-04 21:41 10.70741 -74.85943 37818 ft 472 kts 180°
2026-05-04 21:42 10.65083 -74.85895 37817 ft 472 kts 180°
2026-05-04 21:42 10.58523 -74.85839 37804 ft 472 kts 180°
2026-05-04 21:43 10.51933 -74.85782 37803 ft 473 kts 180°
2026-05-04 21:43 10.45334 -74.85724 37799 ft 473 kts 179°
2026-05-04 21:44 10.38756 -74.85666 37802 ft 472 kts 179°
2026-05-04 21:44 10.32142 -74.85607 37804 ft 472 kts 179°
2026-05-04 21:45 10.25592 -74.85549 37806 ft 472 kts 179°
2026-05-04 21:45 10.18994 -74.85491 37802 ft 473 kts 179°
2026-05-04 21:46 10.12383 -74.85432 37805 ft 473 kts 179°
2026-05-04 21:46 10.05777 -74.85375 37804 ft 473 kts 179°
2026-05-04 21:47 9.99182 -74.85316 37806 ft 475 kts 179°
2026-05-04 21:47 9.92574 -74.85258 37801 ft 474 kts 179°
2026-05-04 21:48 9.85964 -74.85199 37787 ft 473 kts 179°
2026-05-04 21:48 9.79331 -74.85140 37778 ft 473 kts 179°
2026-05-04 21:49 9.72773 -74.85082 37779 ft 472 kts 179°
2026-05-04 21:49 9.66183 -74.85024 37778 ft 472 kts 179°
2026-05-04 21:50 9.59591 -74.84966 37773 ft 473 kts 179°
2026-05-04 21:50 9.52973 -74.84907 37779 ft 473 kts 179°
2026-05-04 21:51 9.46378 -74.84849 37781 ft 474 kts 179°
2026-05-04 21:51 9.39738 -74.84792 37785 ft 474 kts 179°
2026-05-04 21:52 9.33128 -74.84733 37782 ft 474 kts 179°
2026-05-04 21:52 9.26500 -74.84634 37782 ft 473 kts 176°
2026-05-04 21:53 9.19947 -74.84212 37785 ft 472 kts 175°
2026-05-04 21:53 9.13375 -74.83787 37784 ft 473 kts 175°
2026-05-04 21:54 9.06747 -74.83369 37784 ft 475 kts 175°
2026-05-04 21:54 9.00139 -74.82960 37788 ft 475 kts 175°
2026-05-04 21:55 8.93541 -74.82554 37784 ft 475 kts 175°
2026-05-04 21:55 8.86959 -74.82151 37786 ft 474 kts 175°
2026-05-04 21:56 8.80363 -74.81749 37785 ft 473 kts 175°
2026-05-04 21:56 8.73819 -74.81350 37785 ft 473 kts 175°
2026-05-04 21:57 8.67203 -74.80947 37784 ft 473 kts 175°
2026-05-04 21:57 8.60614 -74.80547 37787 ft 474 kts 176°
2026-05-04 21:58 8.54039 -74.80147 37787 ft 474 kts 176°
2026-05-04 21:58 8.47443 -74.79745 37788 ft 474 kts 175°
2026-05-04 21:59 8.40819 -74.79343 37784 ft 473 kts 176°
2026-05-04 21:59 8.34222 -74.78943 37785 ft 473 kts 176°
2026-05-04 22:00 8.27654 -74.78544 37787 ft 473 kts 176°
2026-05-04 22:00 8.21073 -74.78145 37796 ft 473 kts 176°
2026-05-04 22:01 8.14499 -74.77746 37808 ft 473 kts 176°
2026-05-04 22:01 8.07901 -74.77346 37813 ft 473 kts 175°
2026-05-04 22:02 8.01299 -74.76945 37817 ft 473 kts 175°
2026-05-04 22:02 7.94756 -74.76550 37819 ft 473 kts 176°
2026-05-04 22:03 7.88136 -74.76148 37816 ft 473 kts 176°
2026-05-04 22:03 7.81553 -74.75749 37817 ft 473 kts 176°
2026-05-04 22:04 7.74967 -74.75351 37815 ft 474 kts 176°
2026-05-04 22:04 7.68358 -74.74984 37818 ft 474 kts 179°
2026-05-04 22:05 7.61719 -74.75247 37836 ft 475 kts 182°
2026-05-04 22:05 7.55094 -74.75574 37847 ft 475 kts 182°
2026-05-04 22:06 7.48517 -74.75895 37876 ft 475 kts 182°
2026-05-04 22:06 7.41853 -74.76219 37876 ft 475 kts 182°
2026-05-04 22:07 7.35277 -74.76538 37879 ft 474 kts 182°
2026-05-04 22:07 7.28627 -74.76860 37920 ft 476 kts 182°
2026-05-04 22:08 7.21992 -74.77181 37918 ft 476 kts 182°
2026-05-04 22:08 7.15336 -74.77502 37936 ft 477 kts 182°
2026-05-04 22:09 7.08722 -74.77821 37977 ft 476 kts 182°
2026-05-04 22:09 7.02077 -74.78142 37995 ft 476 kts 182°
2026-05-04 22:10 6.95463 -74.78462 38008 ft 475 kts 182°
2026-05-04 22:10 6.88838 -74.78781 38010 ft 476 kts 182°
2026-05-04 22:11 6.82211 -74.79101 38011 ft 476 kts 182°
2026-05-04 22:11 6.75545 -74.79422 38024 ft 477 kts 182°
2026-05-04 22:12 6.68902 -74.79742 38033 ft 477 kts 182°
2026-05-04 22:12 6.62244 -74.80063 38031 ft 478 kts 182°
2026-05-04 22:13 6.55609 -74.80383 38021 ft 478 kts 182°
2026-05-04 22:13 6.48936 -74.80704 38019 ft 478 kts 182°
2026-05-04 22:14 6.42246 -74.81027 38010 ft 478 kts 181°
2026-05-04 22:14 6.35621 -74.81345 38004 ft 478 kts 182°
2026-05-04 22:15 6.28918 -74.81667 37983 ft 479 kts 182°
2026-05-04 22:15 6.25596 -74.81827 37674 ft 474 kts 182°
2026-05-04 22:15 6.22297 -74.81986 36720 ft 477 kts 182°
2026-05-04 22:15 6.18998 -74.82145 35954 ft 477 kts 182°
2026-05-04 22:16 6.15662 -74.82305 35236 ft 476 kts 182°
2026-05-04 22:16 6.12357 -74.82464 34459 ft 476 kts 182°
2026-05-04 22:16 6.09035 -74.82624 33673 ft 475 kts 182°
2026-05-04 22:16 6.05734 -74.82783 32845 ft 476 kts 182°
2026-05-04 22:17 6.02435 -74.82942 32023 ft 477 kts 182°
2026-05-04 22:17 5.99117 -74.83363 31196 ft 478 kts 191°
2026-05-04 22:17 5.95900 -74.84161 30429 ft 479 kts 194°
2026-05-04 22:17 5.92622 -74.85042 29934 ft 484 kts 194°
2026-05-04 22:18 5.89356 -74.85923 29410 ft 490 kts 194°
2026-05-04 22:18 5.86059 -74.86812 28833 ft 488 kts 194°
2026-05-04 22:18 5.82800 -74.87690 28265 ft 482 kts 194°
2026-05-04 22:18 5.79584 -74.88557 27710 ft 476 kts 194°
2026-05-04 22:19 5.76386 -74.89417 27142 ft 471 kts 194°
2026-05-04 22:19 5.73219 -74.90269 26575 ft 466 kts 194°
2026-05-04 22:19 5.70115 -74.91104 26013 ft 462 kts 194°
2026-05-04 22:19 5.67005 -74.91940 25450 ft 457 kts 193°
2026-05-04 22:20 5.63962 -74.92758 24904 ft 453 kts 193°
2026-05-04 22:20 5.60893 -74.93582 24326 ft 449 kts 193°
2026-05-04 22:20 5.57908 -74.94384 23764 ft 446 kts 193°
2026-05-04 22:20 5.54919 -74.95187 23202 ft 442 kts 193°
2026-05-04 22:21 5.51914 -74.95994 22619 ft 439 kts 193°
2026-05-04 22:21 5.48985 -74.96780 22068 ft 436 kts 193°
2026-05-04 22:21 5.46083 -74.97560 21830 ft 424 kts 193°
2026-05-04 22:21 5.43281 -74.98305 21718 ft 410 kts 191°
2026-05-04 22:22 5.40490 -74.98708 21583 ft 394 kts 180°
2026-05-04 22:22 5.37790 -74.98589 21422 ft 379 kts 169°
2026-05-04 22:22 5.35243 -74.97997 21007 ft 374 kts 159°
2026-05-04 22:22 5.32805 -74.97096 20478 ft 373 kts 156°
2026-05-04 22:23 5.30391 -74.96146 19984 ft 373 kts 156°
2026-05-04 22:23 5.27978 -74.95180 19514 ft 371 kts 155°
2026-05-04 22:23 5.25587 -74.94205 19042 ft 369 kts 155°
2026-05-04 22:23 5.23241 -74.93199 18575 ft 366 kts 150°
2026-05-04 22:24 5.21125 -74.91801 18023 ft 363 kts 137°
2026-05-04 22:24 5.19482 -74.89960 17740 ft 351 kts 122°
2026-05-04 22:24 5.18191 -74.87907 17555 ft 340 kts 119°
2026-05-04 22:24 5.16988 -74.85880 17110 ft 338 kts 118°
2026-05-04 22:25 5.15809 -74.83846 16749 ft 334 kts 118°
2026-05-04 22:25 5.14660 -74.81879 16682 ft 320 kts 118°
2026-05-04 22:25 5.13547 -74.79983 16668 ft 312 kts 118°
2026-05-04 22:25 5.12453 -74.78110 16667 ft 316 kts 118°
2026-05-04 22:26 5.11341 -74.76205 16648 ft 315 kts 118°
2026-05-04 22:26 5.10229 -74.74287 16497 ft 317 kts 118°
2026-05-04 22:26 5.09127 -74.72381 16252 ft 316 kts 118°
2026-05-04 22:26 5.08020 -74.70469 15994 ft 311 kts 118°
2026-05-04 22:27 5.06947 -74.68615 15807 ft 308 kts 118°
2026-05-04 22:27 5.05859 -74.66736 15648 ft 310 kts 118°
2026-05-04 22:27 5.04774 -74.64861 15424 ft 310 kts 118°
2026-05-04 22:27 5.03694 -74.62996 15193 ft 307 kts 118°
2026-05-04 22:28 5.02635 -74.61168 15023 ft 304 kts 118°
2026-05-04 22:28 5.01589 -74.59364 14906 ft 295 kts 118°
2026-05-04 22:28 5.00569 -74.57604 14696 ft 283 kts 118°
2026-05-04 22:28 4.99597 -74.55926 14567 ft 276 kts 118°
2026-05-04 22:29 4.98637 -74.54268 14365 ft 276 kts 118°
2026-05-04 22:29 4.97661 -74.52583 14169 ft 278 kts 118°
2026-05-04 22:29 4.96690 -74.50906 13951 ft 276 kts 118°
2026-05-04 22:29 4.95729 -74.49249 13780 ft 274 kts 118°
2026-05-04 22:30 4.94668 -74.47652 13618 ft 274 kts 124°
2026-05-04 22:30 4.93528 -74.46131 13431 ft 274 kts 125°
2026-05-04 22:30 4.92377 -74.44608 13262 ft 274 kts 125°
2026-05-04 22:30 4.91227 -74.43089 13078 ft 272 kts 125°
2026-05-04 22:31 4.90076 -74.41578 12971 ft 265 kts 125°
2026-05-04 22:31 4.88999 -74.40205 13029 ft 236 kts 126°
2026-05-04 22:31 4.87982 -74.38969 13042 ft 221 kts 127°
2026-05-04 22:31 4.87030 -74.37801 12963 ft 216 kts 126°
2026-05-04 22:32 4.86094 -74.36618 12731 ft 211 kts 125°
2026-05-04 22:32 4.85204 -74.35469 12499 ft 210 kts 125°
2026-05-04 22:32 4.84298 -74.34283 12264 ft 212 kts 124°
2026-05-04 22:32 4.83413 -74.33109 12044 ft 210 kts 125°
2026-05-04 22:33 4.82536 -74.31954 11821 ft 209 kts 124°
2026-05-04 22:33 4.81656 -74.30798 11577 ft 207 kts 125°
2026-05-04 22:33 4.80780 -74.29649 11318 ft 201 kts 125°
2026-05-04 22:33 4.79968 -74.28592 11081 ft 181 kts 125°
2026-05-04 22:34 4.79246 -74.27650 10864 ft 158 kts 125°
2026-05-04 22:34 4.78605 -74.26811 10691 ft 148 kts 126°
2026-05-04 22:34 4.77974 -74.25986 10508 ft 150 kts 124°
2026-05-04 22:34 4.77339 -74.25149 10318 ft 147 kts 125°
2026-05-04 22:35 4.76723 -74.24342 10122 ft 146 kts 126°
2026-05-04 22:35 4.76099 -74.23522 9934 ft 146 kts 125°
2026-05-04 22:35 4.75476 -74.22707 9736 ft 148 kts 125°
2026-05-04 22:35 4.74847 -74.21877 9536 ft 149 kts 125°
2026-05-04 22:36 4.74231 -74.21071 9355 ft 146 kts 126°
2026-05-04 22:36 4.73610 -74.20256 9150 ft 144 kts 126°
2026-05-04 22:36 4.73007 -74.19463 8981 ft 141 kts 125°
2026-05-04 22:36 4.72412 -74.18684 8796 ft 142 kts 125°
2026-05-04 22:37 4.71792 -74.17894 8573 ft 146 kts 127°
2026-05-04 22:37 4.71158 -74.17074 8416 ft 146 kts 125°
2026-05-04 22:37 4.70597 -74.16322 8361 ft 113 kts 127°
2026-05-04 22:37 4.70236 -74.15843 8370 ft 60 kts 127°
2026-05-04 22:38 4.70055 -74.15602 8372 ft 26 kts 127°
2026-05-04 22:38 4.70039 -74.15536 8373 ft 6 kts 56°
2026-05-04 22:38 4.70072 -74.15508 8374 ft 5 kts 37°
2026-05-04 22:38 4.70094 -74.15492 8375 ft 3 kts 37°
2026-05-04 22:39 4.70113 -74.15477 8375 ft 3 kts 37°
2026-05-04 22:39 4.70135 -74.15460 8376 ft 4 kts 37°
2026-05-04 22:39 4.70163 -74.15438 8376 ft 5 kts 45°
2026-05-04 22:39 4.70167 -74.15399 8376 ft 7 kts 114°
2026-05-04 22:40 4.70128 -74.15340 8376 ft 12 kts 127°
2026-05-04 22:40 4.70075 -74.15270 8376 ft 12 kts 127°
2026-05-04 22:40 4.70020 -74.15198 8376 ft 13 kts 127°
2026-05-04 22:40 4.69964 -74.15124 8376 ft 13 kts 127°
2026-05-04 22:41 4.69904 -74.15045 8375 ft 14 kts 127°
2026-05-04 22:41 4.69846 -74.14969 8374 ft 13 kts 127°
2026-05-04 22:41 4.69799 -74.14907 8374 ft 9 kts 127°
2026-05-04 22:41 4.69769 -74.14866 8374 ft 7 kts 126°
2026-05-04 22:42 4.69750 -74.14828 8374 ft 5 kts 90°
2026-05-04 22:42 4.69767 -74.14799 8374 ft 5 kts 42°
2026-05-04 22:42 4.69797 -74.14775 8375 ft 5 kts 37°
2026-05-04 22:42 4.69827 -74.14752 8376 ft 5 kts 37°
2026-05-04 22:43 4.69863 -74.14725 8377 ft 6 kts 37°
2026-05-04 22:43 4.69906 -74.14693 8377 ft 8 kts 37°
2026-05-04 22:43 4.69958 -74.14654 8377 ft 10 kts 37°
2026-05-04 22:43 4.70010 -74.14615 8379 ft 8 kts 37°
2026-05-04 22:44 4.70049 -74.14586 8379 ft 5 kts 37°
2026-05-04 22:44 4.70064 -74.14558 8380 ft 3 kts 95°
2026-05-04 22:44 4.70052 -74.14530 8380 ft 5 kts 119°
2026-05-04 22:44 4.70024 -74.14489 8381 ft 5 kts 126°
2026-05-04 22:45 4.70000 -74.14456 8381 ft 3 kts 126°
2026-05-04 22:45 4.69994 -74.14409 8381 ft 2 kts 44°
2026-05-04 22:45 4.70013 -74.14394 8381 ft 3 kts 38°
2026-05-04 22:46 4.70024 -74.14384 8381 ft 0 kts 38°